Hourly Weather Cemer

Today, 23 June, Wednesday

Time Temperature Precipitation Wind Pressure Humidity
00:00 +14°C° 0 mm 4 mps 591 mmHg 34%
01:00 +14°C° 0 mm 4 mps 591 mmHg 34%
02:00 +14°C° 0 mm 4 mps 591 mmHg 35%
03:00 +14°C° 0 mm 3 mps 591 mmHg 36%
04:00 +16°C° 0 mm 3 mps 591 mmHg 42%
05:00 +17°C° 0 mm 3 mps 591 mmHg 48%
06:00 +18°C° 0 mm 2 mps 592 mmHg 54%
07:00 +19°C° 0 mm 2 mps 592 mmHg 47%
08:00 +21°C° 0 mm 2 mps 593 mmHg 41%
09:00 +24°C° 0 mm 2 mps 593 mmHg 35%
10:00 +24°C° 0 mm 2 mps 594 mmHg 34%
11:00 +25°C° 0 mm 3 mps 594 mmHg 34%
12:00 +26°C° 0 mm 3 mps 594 mmHg 33%
13:00 +26°C° 0 mm 3 mps 594 mmHg 33%
14:00 +26°C° 0 mm 3 mps 594 mmHg 32%
15:00 +26°C° 0 mm 3 mps 594 mmHg 32%
16:00 +25°C° 0 mm 3 mps 594 mmHg 37%
17:00 +24°C° 0 mm 2 mps 593 mmHg 42%
18:00 +23°C° 0 mm 2 mps 593 mmHg 47%
19:00 +19°C° 0 mm 2 mps 593 mmHg 45%
20:00 +17°C° 0 mm 3 mps 592 mmHg 42%
21:00 +14°C° 0 mm 3 mps 592 mmHg 40%
22:00 +14°C° 0 mm 3 mps 592 mmHg 39%
23:00 +14°C° 0 mm 3 mps 591 mmHg 38%

Tomorrow, 24 June, Thursday

Time Temperature Precipitation Wind Pressure Humidity
00:00 +14°C° 0 mm 3 mps 591 mmHg 37%
01:00 +14°C° 0 mm 3 mps 591 mmHg 36%
02:00 +14°C° 0 mm 3 mps 591 mmHg 35%
03:00 +14°C° 0 mm 3 mps 590 mmHg 34%
04:00 +14°C° 0 mm 3 mps 591 mmHg 37%
05:00 +16°C° 0 mm 3 mps 591 mmHg 40%
06:00 +17°C° 0 mm 3 mps 592 mmHg 43%
07:00 +19°C° 0 mm 3 mps 592 mmHg 38%
08:00 +23°C° 0 mm 2 mps 593 mmHg 33%
09:00 +25°C° 0 mm 2 mps 593 mmHg 28%
10:00 +25°C° 0 mm 2 mps 594 mmHg 29%
11:00 +26°C° 0 mm 3 mps 594 mmHg 30%
12:00 +26°C° 0 mm 3 mps 594 mmHg 30%
13:00 +26°C° 0 mm 3 mps 594 mmHg 31%
14:00 +26°C° 0 mm 3 mps 594 mmHg 32%
15:00 +26°C° 0 mm 3 mps 594 mmHg 33%
16:00 +25°C° 0 mm 3 mps 594 mmHg 38%
17:00 +24°C° 0 mm 2 mps 593 mmHg 43%
18:00 +23°C° 0 mm 2 mps 593 mmHg 47%
19:00 +20°C° 0 mm 2 mps 593 mmHg 44%
20:00 +18°C° 0 mm 3 mps 592 mmHg 42%
21:00 +16°C° 0 mm 3 mps 592 mmHg 39%
22:00 +14°C° 0 mm 3 mps 591 mmHg 37%
23:00 +14°C° 0 mm 3 mps 591 mmHg 35%

Day after tomorrow, 25 June, Friday

Time Temperature Precipitation Wind Pressure Humidity
00:00 +14°C° 0 mm 3 mps 591 mmHg 33%
01:00 +16°C° 0 mm 3 mps 591 mmHg 31%
02:00 +16°C° 0 mm 3 mps 591 mmHg 30%
03:00 +17°C° 0 mm 2 mps 591 mmHg 28%
04:00 +17°C° 0 mm 3 mps 591 mmHg 33%
05:00 +17°C° 0 mm 3 mps 591 mmHg 38%
06:00 +18°C° 0 mm 3 mps 591 mmHg 42%
07:00 +20°C° 0 mm 3 mps 592 mmHg 37%
08:00 +22°C° 0 mm 3 mps 592 mmHg 32%
09:00 +25°C° 0 mm 2 mps 593 mmHg 26%
10:00 +26°C° 0 mm 3 mps 593 mmHg 27%
11:00 +26°C° 0 mm 3 mps 593 mmHg 28%
12:00 +27°C° 0 mm 3 mps 593 mmHg 28%
13:00 +27°C° 0 mm 3 mps 593 mmHg 30%
14:00 +26°C° 0 mm 3 mps 593 mmHg 31%
15:00 +26°C° 0 mm 3 mps 593 mmHg 33%
16:00 +25°C° 0 mm 3 mps 593 mmHg 37%
17:00 +24°C° 0 mm 2 mps 592 mmHg 41%
18:00 +23°C° 0 mm 2 mps 592 mmHg 46%
19:00 +20°C° 0 mm 2 mps 591 mmHg 44%
20:00 +18°C° 0 mm 2 mps 591 mmHg 42%
21:00 +16°C° 0 mm 3 mps 590 mmHg 40%
22:00 +14°C° 0 mm 3 mps 590 mmHg 38%
23:00 +14°C° 0 mm 3 mps 590 mmHg 37%

26 June, Saturday

Time Temperature Precipitation Wind Pressure Humidity
00:00 +14°C° 0 mm 3 mps 590 mmHg 36%
01:00 +14°C° 0 mm 3 mps 590 mmHg 36%
02:00 +14°C° 0 mm 3 mps 589 mmHg 36%
03:00 +14°C° 0 mm 3 mps 589 mmHg 36%
04:00 +16°C° 0 mm 3 mps 590 mmHg 39%
05:00 +16°C° 0 mm 3 mps 590 mmHg 42%
06:00 +17°C° 0 mm 3 mps 590 mmHg 46%
07:00 +19°C° 0 mm 3 mps 591 mmHg 41%
08:00 +21°C° 0 mm 3 mps 591 mmHg 36%
09:00 +24°C° 0 mm 3 mps 592 mmHg 32%
10:00 +24°C° 0 mm 3 mps 592 mmHg 32%
11:00 +25°C° 0 mm 3 mps 592 mmHg 32%
12:00 +25°C° 0 mm 3 mps 592 mmHg 32%
13:00 +25°C° 0 mm 3 mps 592 mmHg 35%
14:00 +25°C° 0 mm 3 mps 592 mmHg 38%
15:00 +24°C° 0 mm 3 mps 592 mmHg 40%
16:00 +24°C° 0 mm 3 mps 591 mmHg 44%
17:00 +23°C° 0 mm 2 mps 591 mmHg 47%
18:00 +21°C° 0 mm 2 mps 591 mmHg 51%
19:00 +20°C° 0 mm 2 mps 591 mmHg 51%
20:00 +18°C° 0 mm 2 mps 590 mmHg 51%
21:00 +16°C° 0 mm 2 mps 590 mmHg 51%
22:00 +16°C° 0 mm 3 mps 590 mmHg 51%
23:00 +14°C° 0 mm 3 mps 590 mmHg 52%

27 June, Sunday

Time Temperature Precipitation Wind Pressure Humidity
00:00 +14°C° 0 mm 3 mps 589 mmHg 52%
01:00 +13°C° 0 mm 3 mps 589 mmHg 52%
02:00 +13°C° 0 mm 3 mps 589 mmHg 52%
03:00 +13°C° 0 mm 3 mps 589 mmHg 52%
04:00 +14°C° 0 mm 3 mps 589 mmHg 52%
05:00 +16°C° 0 mm 3 mps 590 mmHg 53%
06:00 +17°C° 0 mm 3 mps 590 mmHg 53%
07:00 +18°C° 0 mm 2 mps 591 mmHg 49%
08:00 +20°C° 0 mm 2 mps 591 mmHg 45%
09:00 +21°C° 0 mm 2 mps 592 mmHg 41%
10:00 +23°C° 0 mm 2 mps 592 mmHg 40%
11:00 +24°C° 0 mm 2 mps 592 mmHg 39%
12:00 +24°C° 0 mm 3 mps 593 mmHg 38%
13:00 +24°C° 0 mm 3 mps 593 mmHg 38%
14:00 +24°C° 0 mm 3 mps 592 mmHg 38%
15:00 +24°C° 0 mm 3 mps 592 mmHg 38%
16:00 +22°C° 0.4 mm 3 mps 592 mmHg 44%
17:00 +21°C° 0.4 mm 2 mps 592 mmHg 50%
18:00 +20°C° 0.4 mm 2 mps 592 mmHg 56%
19:00 +18°C° 0 mm 2 mps 591 mmHg 58%
20:00 +17°C° 0 mm 2 mps 591 mmHg 61%
21:00 +15°C° 0 mm 2 mps 591 mmHg 64%
22:00 +14°C° 0 mm 3 mps 590 mmHg 63%
23:00 +13°C° 0 mm 3 mps 590 mmHg 62%

28 June, Monday

Time Temperature Precipitation Wind Pressure Humidity
00:00 +13°C° 0 mm 3 mps 590 mmHg 62%
01:00 +13°C° 0 mm 3 mps 590 mmHg 60%
02:00 +13°C° 0 mm 3 mps 590 mmHg 59%
03:00 +12°C° 0 mm 3 mps 589 mmHg 57%
04:00 +13°C° 0 mm 3 mps 590 mmHg 56%
05:00 +14°C° 0 mm 3 mps 590 mmHg 55%
06:00 +16°C° 0 mm 2 mps 590 mmHg 54%
07:00 +18°C° 0 mm 2 mps 591 mmHg 49%
08:00 +19°C° 0 mm 2 mps 591 mmHg 45%
09:00 +21°C° 0 mm 2 mps 592 mmHg 41%
10:00 +21°C° 0.1 mm 2 mps 592 mmHg 42%
11:00 +23°C° 0.1 mm 2 mps 592 mmHg 43%
12:00 +22°C° 0.1 mm 3 mps 592 mmHg 44%
13:00 +22°C° 0.5 mm 3 mps 592 mmHg 44%
14:00 +22°C° 0.5 mm 3 mps 592 mmHg 45%
15:00 +22°C° 0.5 mm 3 mps 592 mmHg 46%
16:00 +21°C° 0.5 mm 3 mps 592 mmHg 50%
17:00 +21°C° 0.5 mm 2 mps 591 mmHg 53%
18:00 +20°C° 0.5 mm 2 mps 591 mmHg 57%
19:00 +18°C° 0.3 mm 2 mps 591 mmHg 58%
20:00 +17°C° 0.3 mm 2 mps 591 mmHg 60%
21:00 +15°C° 0.3 mm 2 mps 590 mmHg 61%
22:00 +15°C° 0.1 mm 2 mps 590 mmHg 60%
23:00 +14°C° 0.1 mm 2 mps 590 mmHg 59%
Show more

We Need Your Consent

Meteoprog and our Service Providers may store and access personal data such as cookies, device identifiers or other similar technologies on your device and process such data to personalise content and ads, as well as provide social media features and to analyse the traffic.

  • Store and/or access information on your device

    Cookies, device identifiers or other information can be stored or accessed on your device for the purposes indicated above.

  • Personalised ads and content, ad and content measurement, audience insights, and products development

    Ads and content can be personalised based on a profile. More data can be added to better personalise ads and content. Ad and content performance can be measured. Insights about the audience who saw the ads and content can be derived. Such data can be used to develop or improve user’s experience, systems and software.

By clicking ‘I Agree’ you will allow the use of indicated cookies, device identifiers, web beacons or other similar technologies. Your settings can be changed in the browser on your device.

For certain purposes, legitimate interests may be relied on, rather than consent. You can read more about this in our Privacy and Cookie Policy.